[[{"header":{"parameterUnit":"m.s-1","parameterCategory":1,"la1":30.2991,"la2":30.254,"lo1":-89.0895,"lo2":-89.0444,"dy":0.0017,"dx":0.0017,"nx":28,"ny":28,"refTime":"2025-03-13T03:00:00:Z","depth":0,"parameterNumber":2,"parameterNumberName":"U-component_of_WINDS"},"data":[0,0,0,0,0,0,0,0,0,0,0,0,0,0,0,0,0,0,0,0,0,0,0,0,0,0,0,0,0,0,0,0,0,0,0,0,0,0,0,0,0,0,0,0,0,0,0,0,0,0,0,0,0,0,0,0,0,0,-5.8832,-5.8833,0,-5.8921,-5.8922,-5.8923,-5.892,-5.8919,-5.8918,-5.8917,-5.9002,-5.9006,-5.9009,0,0,0,0,0,0,0,0,0,0,0,0,0,-5.8655,-5.8658,-5.8832,-5.8833,-5.8834,-5.892,-5.8922,-5.8923,-5.8921,-5.8919,-5.8918,-5.8916,-5.9001,-5.9005,-5.9009,0,0,0,0,0,0,0,0,0,0,0,0,0,-5.8736,-5.8659,-5.8831,-5.8843,-5.8845,-5.892,-5.8922,-5.8923,-5.8921,-5.8919,-5.8917,-5.8916,-5.9,-5.9005,-5.901,-5.9077,0,0,-5.9025,-5.9028,0,0,0,0,0,0,0,0,-5.8732,-5.8743,-5.884,-5.8843,-5.8845,-5.8908,-5.8891,-5.8975,-5.8921,-5.8892,-5.8917,-5.8915,-5.8972,-5.8979,-5.9,-5.9081,-5.9085,-5.9026,-5.9029,-5.9031,-5.9033,0,0,0,0,0,0,0,-5.8726,-5.8739,-5.8867,-5.8842,-5.8845,-5.8842,-5.8852,-5.8907,-5.8941,-5.8894,-5.8894,-5.8905,-5.8973,-5.8995,-5.9002,-5.9086,-5.9026,-5.903,-5.9033,-5.9035,-5.9226,-5.9228,0,0,0,0,0,0,-5.8718,-5.8734,-5.8864,-5.8869,-5.8783,-5.8847,-5.8858,-5.8889,-5.894,-5.8946,-5.8907,-5.8905,-5.8987,-5.8996,-5.9005,-5.9085,-5.9031,-5.9036,-5.9039,-5.9224,-5.9226,-5.9229,0,0,0,0,0,0,-5.8715,-5.873,-5.886,-5.8802,-5.8818,-5.8852,-5.8887,-5.8892,-5.8914,-5.895,-5.8955,-5.8923,-5.8986,-5.8998,-5.9059,-5.9088,-5.9038,-5.9043,-5.9222,-5.9225,-5.9227,-5.9248,0,0,0,0,0,0,-5.871,-5.8729,-5.8756,-5.8803,-5.8821,-5.8915,-5.8889,-5.8895,-5.8923,-5.8922,-5.8967,-5.8972,-5.8985,-5.9052,-5.9064,-5.9094,-5.9047,-5.9219,-5.9223,-5.9226,-5.9244,-5.9251,-5.9256,0,0,0,0,0,-5.8703,-5.8757,-5.8757,-5.8773,-5.8856,-5.8916,-5.8927,-5.8943,-5.8926,-5.8952,-5.8975,-5.8971,-5.9084,-5.9058,-5.9072,-5.9104,-5.9217,-5.9222,-5.9226,-5.9242,-5.925,-5.9256,0,0,0,0,0,0,-5.871,-5.8763,-5.8764,-5.8835,-5.8871,-5.8916,-5.895,-5.8951,-5.8991,-5.8988,-5.9004,-5.9014,-5.9076,-5.9097,-5.9067,-5.9171,-5.9148,-5.9156,-5.9155,-5.9163,-5.9169,-5.9161,-5.9051,0,0,0,0,0,-5.8721,-5.8767,-5.881,-5.8868,-5.8887,-5.8915,-5.8942,-5.8952,-5.8989,-5.9004,-5.9032,-5.9067,-5.911,-5.9138,-5.918,-5.9249,-5.9257,-5.9278,-5.9284,-5.9288,-5.9294,-5.9329,-5.9338,-5.9243,-5.9243,-5.9243,0,0,-5.8741,-5.8776,-5.8804,-5.8871,-5.89,-5.8946,-5.8928,-5.8977,-5.9011,-5.9011,-5.9071,-5.9092,-5.9133,-5.9198,-5.9228,-5.9217,-5.9322,-5.9294,-5.9298,-5.93,-5.9335,-5.9344,-5.9352,-5.9246,-5.9246,-5.9245,0,0,-5.8801,-5.8834,-5.8885,-5.8915,-5.8961,-5.898,-5.8992,-5.9037,-5.9052,-5.9113,-5.9114,-5.9154,-5.9228,-5.9257,-5.9281,-5.9354,-5.935,-5.9367,-5.9397,-5.9432,-5.9439,-5.9446,-5.9469,-5.9478,-5.9373,-5.9373,-5.9373,0,-5.882,-5.8891,-5.8911,-5.896,-5.8989,-5.8994,-5.9044,-5.9073,-5.9129,-5.9147,-5.9135,-5.9229,-5.9257,-5.9328,-5.9346,-5.9366,-5.9379,-5.936,-5.9437,-5.9444,-5.945,-5.9473,-5.9482,-5.9374,-5.9374,-5.9374,-5.9374,0,-5.8911,-5.896,-5.8996,-5.9052,-5.9085,-5.9135,-5.916,-5.9191,-5.9198,-5.9217,-5.9278,-5.9313,-5.9361,-5.9379,-5.9386,-5.9451,-5.9442,-5.9434,-5.941,-5.9461,-5.9482,-5.9491,-5.9377,-5.9376,-5.9376,-5.9375,0,0,-5.8975,-5.9043,-5.9055,-5.9081,-5.9132,-5.9169,-5.9219,-5.9268,-5.9293,-5.9333,-5.9373,-5.9437,-5.943,-5.9457,-5.9467,-5.9498,-5.9551,-5.9486,-5.9487,-5.9494,-5.9622,-5.9626,-5.9636,-5.9551,-5.9553,-5.9554,-5.9618,0,-5.9039,-5.9129,-5.9148,-5.9225,-5.9269,-5.9276,-5.9319,-5.9354,-5.9374,-5.9413,-5.9435,-5.9479,-5.9467,-5.9484,-5.9515,-5.9538,-5.9576,-5.9534,-5.9586,-5.9587,-5.9572,-5.9647,-5.9652,-5.971,-5.9626,-5.9628,-5.9629,0,-5.9124,-5.9167,-5.9249,-5.9294,-5.9313,-5.9352,-5.9398,-5.9437,-5.9476,-5.9489,-5.9521,-5.9528,-5.9578,-5.9555,-5.9623,-5.9594,-5.9616,-5.9631,-5.9634,-5.9636,-5.9609,-5.9649,-5.9729,-5.9737,-5.9643,-5.9642,-5.9641,0,-5.916,-5.9238,-5.9297,-5.9318,-5.9373,-5.94,-5.9424,-5.9462,-5.949,-5.9531,-5.9549,-5.9594,-5.9618,-5.9652,-5.9671,-5.9653,-5.9737,-5.9716,-5.9746,-5.9746,-5.9761,-5.9759,-5.9843,-5.9781,-5.9781,-5.978,-5.978,0,-5.9227,-5.9275,-5.9313,-5.9349,-5.9403,-5.9425,-5.9478,-5.9502,-5.9536,-5.9575,-5.9584,-5.9619,-5.9644,-5.9683,-5.9698,-5.975,-5.9762,-5.9771,-5.9774,-5.9769,-5.9767,-5.9781,-5.9777,-5.9783,-5.9782,-5.9782,-5.9781,0,-5.9274,-5.9301,-5.9365,-5.9413,-5.9426,-5.9464,-5.9504,-5.9538,-5.9559,-5.9608,-5.9621,-5.9654,-5.97,-5.9723,-5.9781,-5.9791,-5.9849,-5.9851,-5.9836,-5.9837,-5.9865,-5.9861,-5.9958,-5.9971,-5.9903,-5.9904,-5.9904,0,-5.9313,-5.9351,-5.9403,-5.9431,-5.9456,-5.9501,-5.953,-5.9553,-5.9583,-5.9632,-5.9659,-5.9707,-5.9745,-5.9819,-5.9847,-5.989,-5.9891,-5.9923,-5.9898,-5.9891,-5.9888,-5.9885,-5.9887,-5.9926,-5.9926,-5.9927,-5.9927,0,-5.9379,-5.9391,-5.9434,-5.9482,-5.9517,-5.9556,-5.9593,-5.9615,-5.9644,-5.9677,-5.9725,-5.9756,-5.9815,-5.9861,-5.9907,-5.993,-5.9933,-5.9936,-5.9944,-5.9938,-5.9926,-5.993,-5.9845,-5.9932,-5.9932,-5.9931,-5.9931,-5.9931,-5.9422,-5.9455,-5.9497,-5.9545,-5.9576,-5.9611,-5.9645,-5.9672,-5.9713,-5.9764,-5.9776,-5.9826,-5.9865,-5.9927,-5.9952,-5.999,-5.9983,-5.9997,-6.0,-6.0002,-6.0002,-5.9923,-5.9999,-5.9999,-5.9999,-5.9999,-5.9999,0,-5.9486,-5.9514,-5.9557,-5.961,-5.9647,-5.965,-5.9692,-5.9722,-5.9767,-5.9804,-5.9842,-5.9897,-5.9943,-5.9975,-6.002,-6.0045,-6.0047,-6.0056,-6.0052,-6.0057,-6.0007,-5.9993,-6.0053,-6.0053,-6.0053,-6.0053,-6.0053,-6.0053,-5.9523,-5.958,-5.9597,-5.9668,-5.9696,-5.9747,-5.977,-5.9802,-5.9831,-5.9893,-5.9931,-5.9953,-5.9987,-6.0035,-6.0076,-6.0084,-6.0099,-6.0107,-6.0115,-6.0067,-6.0061,-6.0055,-6.0042,-6.0111,-6.0111,-6.0162,-6.0162,-6.0162]},{"header":{"parameterUnit":"m.s-1","parameterCategory":1,"la1":30.2991,"la2":30.254,"lo1":-89.0895,"lo2":-89.0444,"dy":0.0017,"dx":0.0017,"nx":28,"ny":28,"refTime":"2025-03-13T03:00:00:Z","depth":0,"parameterNumber":3,"parameterNumberName":"V-component_of_WINDS"},"data":[0,0,0,0,0,0,0,0,0,0,0,0,0,0,0,0,0,0,0,0,0,0,0,0,0,0,0,0,0,0,0,0,0,0,0,0,0,0,0,0,0,0,0,0,0,0,0,0,0,0,0,0,0,0,0,0,0,0,5.263,5.263,0,5.2696,5.2697,5.2697,5.2705,5.2704,5.2704,5.2703,5.2769,5.2771,5.2773,0,0,0,0,0,0,0,0,0,0,0,0,0,5.2509,5.2512,5.263,5.2631,5.2631,5.2696,5.2697,5.2698,5.2705,5.2704,5.2703,5.2703,5.2768,5.2771,5.2774,0,0,0,0,0,0,0,0,0,0,0,0,0,5.2567,5.2512,5.263,5.2643,5.2645,5.2696,5.2697,5.2698,5.2705,5.2704,5.2703,5.2702,5.2767,5.277,5.2774,5.2815,0,0,5.2785,5.2786,0,0,0,0,0,0,0,0,5.2564,5.2572,5.264,5.2642,5.2644,5.2691,5.2678,5.2737,5.2705,5.2682,5.2703,5.2702,5.2744,5.2749,5.2763,5.2818,5.2821,5.2785,5.2787,5.2789,5.279,0,0,0,0,0,0,0,5.256,5.2569,5.2656,5.2641,5.2644,5.2645,5.2653,5.269,5.2717,5.2684,5.2685,5.2693,5.2744,5.276,5.2765,5.2822,5.2785,5.2788,5.279,5.2792,5.2917,5.2919,0,0,0,0,0,0,5.2554,5.2565,5.2654,5.2658,5.2601,5.2648,5.2656,5.2677,5.2717,5.2722,5.2693,5.2693,5.2754,5.2761,5.2767,5.2821,5.2789,5.2792,5.2794,5.2916,5.2918,5.2919,0,0,0,0,0,0,5.2551,5.2561,5.2651,5.2612,5.2623,5.2652,5.2675,5.2679,5.2695,5.2724,5.2729,5.2704,5.2754,5.2762,5.2804,5.2823,5.2794,5.2797,5.2915,5.2917,5.2918,5.2927,0,0,0,0,0,0,5.2547,5.256,5.2576,5.2612,5.2626,5.2687,5.2676,5.2681,5.2701,5.2701,5.2736,5.2741,5.2754,5.2799,5.2808,5.2828,5.28,5.2913,5.2916,5.2918,5.2925,5.2929,5.2932,0,0,0,0,0,5.2543,5.2575,5.2577,5.2588,5.2646,5.2688,5.2695,5.2711,5.2702,5.2719,5.2738,5.2739,5.2819,5.2803,5.2813,5.2834,5.2912,5.2915,5.2918,5.2923,5.2928,5.2932,0,0,0,0,0,0,5.2539,5.258,5.2583,5.2627,5.2654,5.2689,5.271,5.2715,5.2744,5.2743,5.276,5.2767,5.2809,5.2825,5.2807,5.2878,5.2865,5.287,5.2866,5.287,5.2874,5.287,5.2802,0,0,0,0,0,5.2544,5.2575,5.2608,5.2644,5.2658,5.2682,5.27,5.271,5.2739,5.275,5.2772,5.2799,5.2831,5.2851,5.2882,5.2927,5.2936,5.2946,5.295,5.2953,5.2957,5.2985,5.2991,5.2928,5.2928,5.2928,0,0,5.2553,5.2579,5.2597,5.2644,5.2666,5.2698,5.2691,5.2725,5.2749,5.2755,5.2797,5.2814,5.2845,5.289,5.291,5.2905,5.2976,5.2956,5.2958,5.2961,5.2988,5.2994,5.3,5.293,5.293,5.2929,0,0,5.2587,5.2609,5.2643,5.2666,5.27,5.2716,5.2724,5.2759,5.2771,5.2814,5.282,5.2848,5.2901,5.2925,5.2943,5.2988,5.2991,5.2997,5.3016,5.3043,5.3048,5.3052,5.3071,5.3077,5.3001,5.3001,5.3001,0,5.2594,5.2643,5.2659,5.2694,5.2715,5.2723,5.2758,5.2779,5.2821,5.2835,5.2828,5.2898,5.2919,5.297,5.2982,5.2996,5.3007,5.2994,5.3046,5.3051,5.3055,5.3073,5.308,5.3002,5.3002,5.3002,5.3002,0,5.2652,5.2686,5.2709,5.2751,5.2775,5.2809,5.2831,5.2852,5.286,5.2877,5.2921,5.2948,5.2985,5.2997,5.3004,5.3051,5.3047,5.3042,5.303,5.3062,5.3079,5.3085,5.3003,5.3003,5.3003,5.3003,0,0,5.2685,5.2737,5.2746,5.2766,5.2805,5.2832,5.2867,5.2904,5.2924,5.2953,5.2984,5.303,5.3027,5.3048,5.3058,5.3082,5.3119,5.3075,5.3076,5.3085,5.3174,5.3179,5.3186,5.3121,5.3122,5.3123,5.3172,0,5.2725,5.2789,5.2806,5.286,5.2893,5.2902,5.2933,5.296,5.2977,5.3008,5.3026,5.3059,5.3052,5.3065,5.3089,5.3109,5.3138,5.3106,5.3151,5.3152,5.3145,5.3195,5.3199,5.3245,5.3179,5.318,5.3181,0,5.2781,5.2813,5.2871,5.2909,5.2923,5.2951,5.2988,5.3016,5.3048,5.3059,5.3084,5.3092,5.313,5.3115,5.3168,5.3146,5.3165,5.3179,5.3181,5.3187,5.317,5.3205,5.3259,5.3267,5.3191,5.319,5.319,0,5.2803,5.286,5.2903,5.292,5.2964,5.2984,5.3003,5.3034,5.3056,5.3088,5.3103,5.3138,5.3158,5.3186,5.3204,5.3191,5.3257,5.3242,5.3268,5.3268,5.3283,5.3282,5.3343,5.3291,5.3291,5.3291,5.3291,0,5.2847,5.2883,5.2914,5.2941,5.2982,5.3,5.3041,5.306,5.3088,5.3119,5.3127,5.3156,5.3177,5.3209,5.3223,5.3267,5.3275,5.3286,5.3289,5.3286,5.3285,5.33,5.3299,5.3293,5.3293,5.3292,5.3292,0,5.2879,5.2901,5.2949,5.2987,5.2998,5.3027,5.306,5.3086,5.3104,5.3143,5.3153,5.3181,5.3219,5.324,5.3287,5.3297,5.3347,5.3347,5.3336,5.3338,5.3364,5.3362,5.3439,5.3451,5.3389,5.3389,5.339,0,5.2907,5.2936,5.2977,5.3,5.302,5.3054,5.3078,5.3097,5.3121,5.3161,5.3183,5.3222,5.3255,5.3316,5.334,5.3377,5.338,5.3405,5.3386,5.3383,5.3384,5.3383,5.3387,5.3409,5.3409,5.341,5.341,0,5.2956,5.2966,5.3,5.3038,5.3067,5.3097,5.3128,5.3145,5.3169,5.3196,5.3236,5.3262,5.3311,5.3351,5.339,5.341,5.3415,5.3416,5.3424,5.3422,5.3416,5.3423,5.3348,5.3414,5.3414,5.3413,5.3413,5.3413,5.2988,5.3015,5.305,5.3088,5.3113,5.3142,5.317,5.3192,5.3226,5.3269,5.3277,5.3321,5.3353,5.3407,5.3428,5.3462,5.3457,5.3469,5.3472,5.3475,5.3478,5.3409,5.3469,5.3469,5.3469,5.3469,5.3469,0,5.304,5.3063,5.3098,5.3141,5.3172,5.3174,5.3208,5.3234,5.3272,5.3302,5.3335,5.3382,5.3421,5.3449,5.3488,5.3511,5.3514,5.3521,5.352,5.3525,5.3478,5.3469,5.3517,5.3517,5.3517,5.3517,5.3517,5.3517,5.307,5.3117,5.3131,5.319,5.3213,5.3256,5.3276,5.3303,5.3328,5.3381,5.3413,5.3431,5.3462,5.3504,5.354,5.3547,5.3563,5.3569,5.3577,5.3533,5.3528,5.3523,5.3514,5.3572,5.3572,5.3622,5.3622,5.3622]}]]